Taylorville, IL

6:13 PM CDT on September 22, 2019 (GMT -0500)
Taylorville Municipal

Weather History for KTAZ - August, 2019

Change the Weather History Date:

Thursday, August 22, 2019

  Actual Average (WUND) Record (WUND)
Temperature  
Mean Temperature 71 °F -  
Max Temperature 78 °F - - (-1)
Min Temperature 64 °F - - (-1)
Cooling Degree Days 6    
Growing Degree Days 21 (Base 50)    
Moisture  
Dew Point 69 °F    
Average Humidity 91    
Maximum Humidity 100    
Minimum Humidity 65    
Precipitation  
Precipitation 0.79 in - - ()
Sea Level Pressure  
Sea Level Pressure 29.99 in    
Wind  
Wind Speed 2 mph ()    
Max Wind Speed 9 mph    
Max Gust Speed 16 mph    
Visibility 8.7 miles    
Events Rain , Thunderstorm    
Averages and records for this station are not official NWS values.
T = Trace of Precipitation, MM = Missing Value Source: Averaged Metar Reports

Daily Weather History Graph

Daily Weather History Graph

Search for Another Location

Airport or City:

Astronomy

Aug. 22, 2019 Rise Set
Actual Time 6:16 AM CDT 7:43 PM CDT
Civil Twilight 5:47 AM CDT 8:11 PM CDT
Nautical Twilight 5:13 AM CDT 8:45 PM CDT
Astronomical Twilight 4:37 AM CDT 9:21 PM CDT
Moon 11:35 PM CDT 12:50 PM CDT
Length of Visible Light 14h 23m
Length of Day
13h 27m
Waning Gibbous, 59% of the Moon is Illuminated
Aug 22
Waning Gibbous
Aug 23
Last Quarter
Aug 30
New
Sep 5
First Quarter
Sep 13
Full

Hourly Weather History & Observations

Time (CDT) Temp. Dew Point Humidity Pressure Visibility Wind Dir Wind Speed Gust Speed Precip Events Conditions
12:15 AM 73.4 °F 72.5 °F 97% 30.01 in 10.0 mi Calm Calm - N/A   Overcast
12:35 AM 73.0 °F 72.5 °F 98% 30.00 in 10.0 mi Calm Calm - N/A Rain Light Rain
12:55 AM 72.9 °F 72.3 °F 98% 29.99 in 7.0 mi North 4.6 mph - N/A Rain Light Rain
1:15 AM 72.5 °F 72.0 °F 98% 29.99 in 10.0 mi Calm Calm - N/A   Mostly Cloudy
1:35 AM 72.7 °F 72.1 °F 98% 30.00 in 10.0 mi SSW 5.8 mph - N/A   Overcast
1:55 AM 71.1 °F 69.8 °F 96% 30.01 in 2.5 mi West 9.2 mph 16.1 mph 0.34 in Rain Heavy Rain
2:15 AM 70.2 °F 69.8 °F 99% 30.00 in 3.0 mi WNW 3.5 mph - 0.10 in Rain , Thunderstorm Rain
2:35 AM 70.0 °F 69.8 °F 99% 30.00 in 5.0 mi Calm Calm - 0.15 in Rain , Thunderstorm Light Thunderstorms and Rain
2:55 AM 70.0 °F 69.8 °F 99% 30.00 in 3.0 mi NE 3.5 mph - 0.26 in Rain Light Rain
3:15 AM 69.8 °F 69.8 °F 100% 29.99 in 2.5 mi Calm Calm - 0.07 in Rain Rain
3:35 AM 69.8 °F 69.8 °F 100% 29.98 in 5.0 mi Calm Calm - 0.12 in Rain Rain
3:55 AM 69.8 °F 69.6 °F 99% 29.97 in 7.0 mi Calm Calm - 0.16 in Rain Rain
4:15 AM 69.8 °F 69.4 °F 99% 29.97 in 10.0 mi Calm Calm - 0.01 in   Light Drizzle
4:35 AM 69.8 °F 69.4 °F 99% 29.96 in 7.0 mi Calm Calm - 0.01 in   Mostly Cloudy
4:55 AM 69.8 °F 69.4 °F 99% 29.95 in 3.0 mi Calm Calm - 0.02 in Rain Rain
5:15 AM 69.4 °F 69.4 °F 100% 29.96 in 5.0 mi Calm Calm - N/A Rain Light Rain
5:35 AM 69.4 °F 69.4 °F 100% 29.97 in 7.0 mi SW 3.5 mph - N/A   Drizzle
5:55 AM 69.4 °F 69.3 °F 99% 29.96 in 10.0 mi SSW 4.6 mph - 0.01 in   Light Drizzle
6:15 AM 69.3 °F 69.3 °F 100% 29.96 in 7.0 mi Calm Calm - N/A   Overcast
6:35 AM 69.3 °F 69.3 °F 100% 29.98 in 7.0 mi West 6.9 mph - N/A   Overcast
6:55 AM 69.4 °F 69.3 °F 99% 29.98 in 10.0 mi West 4.6 mph - N/A   Overcast
7:15 AM 69.8 °F 69.8 °F 100% 29.98 in 10.0 mi Calm Calm - N/A   Overcast
7:35 AM 70.2 °F 70.2 °F 100% 29.98 in 10.0 mi Calm Calm - N/A   Overcast
7:55 AM 70.5 °F 70.3 °F 99% 29.99 in 10.0 mi Calm Calm - N/A   Overcast
8:15 AM 70.9 °F 70.7 °F 99% 29.99 in 10.0 mi Calm Calm - N/A   Overcast
8:35 AM 71.1 °F 70.9 °F 99% 29.99 in 10.0 mi North 4.6 mph - N/A   Overcast
8:55 AM 71.6 °F 71.2 °F 99% 29.99 in 10.0 mi North 4.6 mph - N/A   Overcast
9:15 AM 71.6 °F 71.2 °F 99% 30.00 in 10.0 mi NW 4.6 mph - N/A   Overcast
9:35 AM 71.6 °F 71.2 °F 99% 30.00 in 7.0 mi Calm Calm - N/A   Overcast
9:55 AM 72.1 °F 72.0 °F 99% 30.01 in 10.0 mi Calm Calm - N/A   Overcast
10:15 AM 72.7 °F 71.4 °F 96% 30.00 in 10.0 mi North 4.6 mph - N/A   Mostly Cloudy
10:35 AM 74.1 °F 69.8 °F 86% 30.00 in 10.0 mi NNE 3.5 mph - N/A   Scattered Clouds
10:55 AM 75.2 °F 69.1 °F 81% 30.01 in 10.0 mi Calm Calm - N/A   Scattered Clouds
11:15 AM 74.8 °F 69.3 °F 83% 30.02 in 10.0 mi Calm Calm - N/A   Mostly Cloudy
11:35 AM 74.3 °F 70.7 °F 88% 30.02 in 10.0 mi Calm Calm - N/A   Overcast
11:55 AM 75.0 °F 70.0 °F 84% 30.02 in 10.0 mi NW 3.5 mph - N/A   Overcast
12:15 PM 75.6 °F 70.3 °F 84% 30.02 in 10.0 mi NNW 3.5 mph - N/A   Overcast
12:35 PM 75.9 °F 69.6 °F 81% 30.02 in 10.0 mi Calm Calm - N/A   Mostly Cloudy
12:55 PM 76.8 °F 69.6 °F 78% 30.01 in 10.0 mi Calm Calm - N/A   Mostly Cloudy
1:15 PM 77.2 °F 67.6 °F 72% 30.00 in 10.0 mi Calm Calm - N/A   Scattered Clouds
1:35 PM 77.4 °F 68.7 °F 75% 30.00 in 10.0 mi Calm Calm - N/A   Mostly Cloudy
1:55 PM 77.4 °F 70.9 °F 80% 29.99 in 10.0 mi Calm Calm - N/A   Mostly Cloudy
2:15 PM 78.6 °F 70.3 °F 76% 29.98 in 10.0 mi Calm Calm - N/A   Mostly Cloudy
2:35 PM 78.3 °F 70.2 °F 76% 29.98 in 10.0 mi Calm Calm - N/A   Overcast
2:55 PM 77.4 °F 70.7 °F 80% 29.98 in 10.0 mi North 9.2 mph - N/A   Overcast
3:15 PM 74.3 °F 69.8 °F 86% 29.97 in 7.0 mi North 4.6 mph - N/A Rain Light Rain
3:35 PM 75.6 °F 70.0 °F 83% 29.98 in 10.0 mi NNW 3.5 mph - N/A   Overcast
3:55 PM 76.6 °F 70.7 °F 82% 29.97 in 10.0 mi NNE 3.5 mph - N/A   Overcast
4:15 PM 77.4 °F 69.8 °F 77% 29.97 in 10.0 mi NE 4.6 mph - N/A   Overcast
4:35 PM 78.1 °F 70.2 °F 77% 29.97 in 10.0 mi NE 4.6 mph - N/A   Scattered Clouds
4:55 PM 77.5 °F 70.7 °F 79% 29.97 in 10.0 mi NNE 3.5 mph - N/A   Mostly Cloudy
5:15 PM 77.0 °F 67.3 °F 72% 29.98 in 10.0 mi North 5.8 mph - N/A   Scattered Clouds
5:35 PM 77.2 °F 67.8 °F 73% 29.98 in 10.0 mi North 8.1 mph - N/A   Mostly Cloudy
5:55 PM 77.0 °F 68.9 °F 76% 29.98 in 10.0 mi North 8.1 mph - N/A   Overcast
6:15 PM 77.4 °F 64.9 °F 65% 29.97 in 10.0 mi NNE 9.2 mph - N/A   Scattered Clouds
6:35 PM 76.6 °F 64.8 °F 67% 29.97 in 10.0 mi North 5.8 mph - N/A   Scattered Clouds
6:55 PM 75.2 °F 65.8 °F 73% 29.97 in 10.0 mi North 4.6 mph - N/A   Clear
7:15 PM 73.6 °F 66.9 °F 80% 29.97 in 10.0 mi North 3.5 mph - N/A   Clear
7:35 PM 72.0 °F 67.6 °F 86% 29.98 in 10.0 mi Calm Calm - N/A   Clear
7:55 PM 70.2 °F 67.8 °F 92% 29.98 in 10.0 mi Calm Calm - N/A   Clear
8:15 PM 68.9 °F 67.1 °F 94% 29.98 in 10.0 mi Calm Calm - N/A   Clear
8:35 PM 68.5 °F 67.5 °F 96% 29.99 in 10.0 mi Calm Calm - N/A   Clear
9:15 PM 68.0 °F 67.1 °F 97% 30.00 in 10.0 mi Calm Calm - N/A   Clear
9:35 PM 67.6 °F 67.1 °F 98% 30.01 in 7.0 mi Calm Calm - N/A   Clear
9:55 PM 67.3 °F 66.7 °F 98% 30.02 in 10.0 mi Calm Calm - N/A   Clear
10:15 PM 65.3 °F 64.9 °F 99% 30.02 in 7.0 mi Calm Calm - N/A   Clear
10:35 PM 65.5 °F 65.3 °F 99% 30.02 in 7.0 mi Calm Calm - N/A   Clear
10:55 PM 64.8 °F 64.6 °F 99% 30.02 in 5.0 mi Calm Calm - N/A   Clear
11:15 PM 64.6 °F 64.4 °F 99% 30.02 in 7.0 mi North 3.5 mph - N/A   Clear
11:35 PM 64.6 °F 64.4 °F 99% 30.03 in 10.0 mi North 5.8 mph - N/A   Clear
11:55 PM 64.9 °F 64.4 °F 98% 30.02 in 10.0 mi NNE 5.8 mph - N/A   Clear